START_TIME,STEP,MOV.,M34,t_acc.,L5,t_acc.,L18,t_acc.,L14,t_acc.
1979-07-12 15:00:25.080 ,1,0,0.,12.0,0.,12.0,0.,12.0,0.,12.0
1979-07-12 15:00:37.080 ,1,0,0.,12.0,0.,12.0,0.,12.0,0.,12.0
1979-07-12 15:00:49.080 ,2,1,0.,12.0,0.,12.0,0.,12.0,0.,12.0
1979-07-12 15:01:01.080 ,2,1,0.,12.0,0.,12.0,0.,12.0,0.,12.0
1979-07-12 15:01:13.080 ,2,0,0.,12.0,0.,12.0,0.,12.0,0.,12.0
1979-07-12 15:01:25.080 ,2,0,0.,12.0,0.,12.0,0.,12.0,0.,12.0
1979-07-12 15:01:37.080 ,3,1,0.,12.0,0.,12.0,0.,12.0,0.,12.0
1979-07-12 15:01:49.080 ,3,1,0.,12.0,0.,12.0,0.,12.0,0.,12.0
1979-07-12 15:02:01.080 ,3,0,0.,12.0,0.,12.0,0.,12.0,0.,12.0
1979-07-12 15:02:13.080 ,3,0,0.,12.0,0.,12.0,0.,12.0,0.,12.0
1979-07-12 15:02:25.080 ,4,1,1.,12.0,0.,12.0,0.,12.0,0.,12.0
1979-07-12 15:02:37.080 ,4,1,0.,12.0,0.,12.0,0.,12.0,0.,12.0
1979-07-12 15:02:49.080 ,4,0,0.,12.0,0.,12.0,0.,12.0,0.,12.0
1979-07-12 15:03:01.080 ,4,0,0.,12.0,0.,12.0,0.,12.0,0.,12.0
1979-07-12 15:03:13.080 ,5,1,0.,12.0,0.,12.0,0.,12.0,0.,12.0
1979-07-12 15:03:25.080 ,5,1,1.,12.0,0.,12.0,0.,12.0,0.,12.0
1979-07-12 15:03:37.080 ,5,0,0.,12.0,0.,12.0,0.,12.0,0.,12.0
1979-07-12 15:03:49.080 ,5,0,0.,12.0,0.,12.0,0.,12.0,0.,12.0
1979-07-12 15:04:01.080 ,6,1,1.,12.0,0.,12.0,0.,12.0,2.,12.0
1979-07-12 15:04:13.080 ,6,1,0.,12.0,0.,12.0,0.,12.0,0.,12.0
1979-07-12 15:04:25.080 ,6,0,1.,12.0,0.,12.0,0.,12.0,0.,12.0
1979-07-12 15:04:37.080 ,6,0,0.,12.0,0.,12.0,0.,12.0,0.,12.0
1979-07-12 15:04:49.080 ,7,1,0.,12.0,0.,12.0,0.,12.0,0.,12.0
1979-07-12 15:05:01.080 ,7,1,0.,12.0,0.,12.0,0.,12.0,1.,12.0
1979-07-12 15:05:13.080 ,7,0,0.,12.0,0.,12.0,0.,12.0,0.,12.0
1979-07-12 15:05:25.080 ,7,0,0.,12.0,0.,12.0,0.,12.0,0.,12.0
1979-07-12 15:05:37.080 ,7,1,0.,12.0,0.,12.0,0.,12.0,0.,12.0
1979-07-12 15:05:49.080 ,7,1,0.,12.0,0.,12.0,0.,12.0,0.,12.0
1979-07-12 15:06:01.080 ,7,0,0.,12.0,0.,12.0,0.,12.0,0.,12.0
1979-07-12 15:06:13.080 ,7,0,0.,12.0,0.,12.0,0.,12.0,0.,12.0
1979-07-12 15:06:25.080 ,6,1,0.,12.0,0.,12.0,0.,12.0,0.,12.0
1979-07-12 15:06:37.080 ,6,1,0.,12.0,0.,12.0,0.,12.0,0.,12.0
1979-07-12 15:06:49.080 ,6,0,1.,12.0,0.,12.0,0.,12.0,0.,12.0
1979-07-12 15:07:01.080 ,6,0,0.,12.0,0.,12.0,0.,12.0,0.,12.0
1979-07-12 15:07:13.080 ,5,1,1.,12.0,0.,12.0,0.,12.0,0.,12.0
1979-07-12 15:07:25.080 ,5,1,0.,12.0,0.,12.0,0.,12.0,0.,12.0
1979-07-12 15:07:37.080 ,5,0,0.,12.0,0.,12.0,0.,12.0,0.,12.0
1979-07-12 15:07:49.080 ,5,0,0.,12.0,0.,12.0,0.,12.0,0.,12.0
1979-07-12 15:08:01.080 ,4,1,0.,12.0,0.,12.0,0.,12.0,0.,12.0
1979-07-12 15:08:13.080 ,4,1,0.,12.0,0.,12.0,0.,12.0,0.,12.0
1979-07-12 15:08:25.080 ,0,0,0.,12.0,0.,12.0,0.,12.0,1.,12.0
1979-07-12 15:08:37.080 ,0,0,0.,12.0,0.,12.0,0.,12.0,0.,12.0
1979-07-12 15:08:49.080 ,3,1,0.,12.0,0.,12.0,0.,12.0,0.,12.0
1979-07-12 15:09:01.080 ,3,1,0.,12.0,0.,12.0,0.,12.0,0.,12.0
1979-07-12 15:09:13.080 ,3,0,0.,12.0,0.,12.0,0.,12.0,0.,12.0
1979-07-12 15:09:25.080 ,3,0,0.,12.0,0.,12.0,0.,12.0,1.,12.0
1979-07-12 15:09:37.080 ,2,1,0.,12.0,0.,12.0,0.,12.0,0.,12.0
1979-07-12 15:09:49.080 ,2,1,1.,12.0,0.,12.0,0.,12.0,0.,12.0
1979-07-12 15:10:01.080 ,2,0,0.,12.0,0.,12.0,0.,12.0,0.,12.0
1979-07-12 15:10:13.080 ,2,0,0.,12.0,0.,12.0,0.,12.0,0.,12.0
1979-07-12 15:10:25.080 ,1,1,0.,12.0,0.,12.0,0.,12.0,0.,12.0
1979-07-12 15:10:37.080 ,1,1,0.,12.0,0.,12.0,0.,12.0,0.,12.0
1979-07-12 15:10:49.080 ,1,0,0.,12.0,0.,12.0,0.,12.0,0.,12.0
1979-07-12 15:11:01.080 ,1,0,0.,12.0,0.,12.0,0.,12.0,0.,12.0
1979-07-12 15:11:13.080 ,0,1,0.,12.0,0.,12.0,0.,12.0,0.,12.0
1979-07-12 15:11:25.080 ,0,1,0.,12.0,0.,12.0,0.,12.0,0.,12.0
1979-07-12 15:11:37.080 ,0,0,0.,12.0,0.,12.0,0.,12.0,0.,12.0
1979-07-12 15:11:49.080 ,0,0,0.,12.0,0.,12.0,0.,12.0,0.,12.0
1979-07-12 15:12:01.080 ,0,1,0.,12.0,0.,12.0,0.,12.0,0.,12.0
1979-07-12 15:12:13.080 ,0,1,0.,12.0,0.,12.0,0.,12.0,0.,12.0
1979-07-12 15:12:25.080 ,0,0,0.,12.0,0.,12.0,0.,12.0,0.,12.0
1979-07-12 15:12:37.080 ,0,0,0.,12.0,0.,12.0,0.,12.0,0.,12.0
1979-07-12 15:12:49.080 ,1,1,0.,12.0,0.,12.0,0.,12.0,0.,12.0
1979-07-12 15:13:01.080 ,1,1,0.,12.0,0.,12.0,0.,12.0,0.,12.0
1979-07-12 15:13:13.080 ,1,0,0.,12.0,0.,12.0,0.,12.0,0.,12.0
1979-07-12 15:13:25.080 ,1,0,0.,12.0,0.,12.0,0.,12.0,0.,12.0
1979-07-12 15:13:37.080 ,2,1,0.,12.0,0.,12.0,0.,12.0,0.,12.0
1979-07-12 15:13:49.080 ,2,1,0.,12.0,0.,12.0,0.,12.0,0.,12.0
1979-07-12 15:14:01.080 ,2,0,0.,12.0,0.,12.0,0.,12.0,0.,12.0
1979-07-12 15:14:13.080 ,2,0,0.,12.0,0.,12.0,0.,12.0,0.,12.0
1979-07-12 15:14:25.080 ,3,1,1.,12.0,0.,12.0,0.,12.0,0.,12.0
1979-07-12 15:14:37.080 ,3,1,0.,12.0,0.,12.0,0.,12.0,0.,12.0
1979-07-12 15:14:49.080 ,3,0,0.,12.0,0.,12.0,0.,12.0,0.,12.0
1979-07-12 15:15:01.080 ,3,0,0.,12.0,0.,12.0,0.,12.0,0.,12.0
1979-07-12 15:15:13.080 ,4,1,0.,12.0,0.,12.0,0.,12.0,1.,12.0
1979-07-12 15:15:25.080 ,4,1,0.,12.0,0.,12.0,0.,12.0,0.,12.0
1979-07-12 15:15:37.080 ,4,0,0.,12.0,0.,12.0,0.,12.0,0.,12.0
1979-07-12 15:15:49.080 ,4,0,0.,12.0,0.,12.0,0.,12.0,0.,12.0
1979-07-12 15:16:01.080 ,5,1,0.,12.0,0.,12.0,0.,12.0,0.,12.0
1979-07-12 15:16:13.080 ,5,1,0.,12.0,0.,12.0,0.,12.0,0.,12.0
1979-07-12 15:16:25.080 ,5,0,0.,12.0,0.,12.0,0.,12.0,0.,12.0
1979-07-12 15:16:37.080 ,5,0,0.,12.0,0.,12.0,0.,12.0,0.,12.0
1979-07-12 15:16:49.080 ,6,1,0.,12.0,0.,12.0,0.,12.0,0.,12.0
1979-07-12 15:17:01.080 ,6,1,0.,12.0,0.,12.0,0.,12.0,0.,12.0
1979-07-12 15:17:13.080 ,6,0,0.,12.0,0.,12.0,0.,12.0,0.,12.0
1979-07-12 15:17:25.080 ,6,0,0.,12.0,0.,12.0,0.,12.0,0.,12.0
1979-07-12 15:17:37.080 ,7,1,0.,12.0,0.,12.0,0.,12.0,1.,12.0
1979-07-12 15:17:49.080 ,7,1,0.,12.0,0.,12.0,0.,12.0,0.,12.0
1979-07-12 15:18:01.080 ,7,0,0.,12.0,0.,12.0,0.,12.0,0.,12.0
1979-07-12 15:18:13.080 ,7,0,0.,12.0,0.,12.0,0.,12.0,0.,12.0
1979-07-12 15:18:25.080 ,7,1,0.,12.0,0.,12.0,0.,12.0,0.,12.0
1979-07-12 15:18:37.080 ,7,1,0.,12.0,0.,12.0,0.,12.0,0.,12.0
1979-07-12 15:18:49.080 ,7,0,0.,12.0,0.,12.0,0.,12.0,0.,12.0
1979-07-12 15:19:01.080 ,7,0,0.,12.0,0.,12.0,0.,12.0,0.,12.0
1979-07-12 15:19:13.080 ,6,1,0.,12.0,0.,12.0,0.,12.0,0.,12.0
1979-07-12 15:19:25.080 ,6,1,0.,12.0,0.,12.0,0.,12.0,0.,12.0
1979-07-12 15:19:37.080 ,6,0,0.,12.0,0.,12.0,0.,12.0,0.,12.0
1979-07-12 15:19:49.080 ,6,0,0.,12.0,0.,12.0,0.,12.0,1.,12.0
1979-07-12 15:20:01.080 ,5,1,0.,12.0,0.,12.0,0.,12.0,0.,12.0
1979-07-12 15:20:13.080 ,5,1,0.,12.0,0.,12.0,0.,12.0,0.,12.0
1979-07-12 15:20:25.080 ,5,0,0.,12.0,0.,12.0,0.,12.0,0.,12.0
1979-07-12 15:20:37.080 ,5,0,0.,12.0,0.,12.0,0.,12.0,0.,12.0
1979-07-12 15:21:37.080 ,0,0,0.,12.0,0.,12.0,0.,12.0,0.,12.0
1979-07-12 15:21:49.080 ,0,0,0.,12.0,0.,12.0,0.,12.0,0.,12.0
1979-07-12 15:22:01.080 ,0,0,0.,12.0,0.,12.0,0.,12.0,0.,12.0
1979-07-12 15:22:13.080 ,0,0,0.,12.0,0.,12.0,0.,12.0,0.,12.0
1979-07-12 15:22:25.080 ,2,1,0.,12.0,0.,12.0,0.,12.0,0.,12.0
1979-07-12 15:22:37.080 ,2,1,0.,12.0,0.,12.0,0.,12.0,0.,12.0
1979-07-12 15:22:49.080 ,2,0,0.,12.0,0.,12.0,0.,12.0,0.,12.0
1979-07-12 15:23:01.080 ,2,0,0.,12.0,0.,12.0,0.,12.0,0.,12.0
1979-07-12 15:23:13.080 ,1,1,0.,12.0,0.,12.0,0.,12.0,0.,12.0
1979-07-12 15:23:25.080 ,1,1,0.,12.0,0.,12.0,0.,12.0,0.,12.0
1979-07-12 15:23:37.080 ,1,0,0.,12.0,0.,12.0,0.,12.0,0.,12.0
1979-07-12 15:23:49.080 ,1,0,0.,12.0,0.,12.0,0.,12.0,0.,12.0
1979-07-12 15:24:01.080 ,0,1,0.,12.0,0.,12.0,0.,12.0,0.,12.0
1979-07-12 15:24:13.080 ,0,1,0.,12.0,0.,12.0,0.,12.0,0.,12.0
1979-07-12 15:24:25.080 ,0,0,0.,12.0,0.,12.0,0.,12.0,0.,12.0
1979-07-12 15:24:37.080 ,0,0,0.,12.0,0.,12.0,0.,12.0,0.,12.0
1979-07-12 15:24:49.080 ,0,1,0.,12.0,0.,12.0,0.,12.0,0.,12.0
1979-07-12 15:25:01.080 ,0,1,0.,12.0,0.,12.0,0.,12.0,0.,12.0
1979-07-12 15:25:13.080 ,0,0,1.,12.0,0.,12.0,0.,12.0,0.,12.0
1979-07-12 15:25:25.080 ,0,0,0.,12.0,0.,12.0,0.,12.0,0.,12.0
1979-07-12 15:25:37.080 ,1,1,0.,12.0,0.,12.0,0.,12.0,0.,12.0
1979-07-12 15:25:49.080 ,1,1,0.,12.0,0.,12.0,0.,12.0,0.,12.0
1979-07-12 15:26:01.080 ,1,0,0.,12.0,0.,12.0,0.,12.0,0.,12.0
1979-07-12 15:26:13.080 ,1,0,0.,12.0,0.,12.0,0.,12.0,0.,12.0
1979-07-12 15:26:25.080 ,2,1,0.,12.0,0.,12.0,0.,12.0,0.,12.0
1979-07-12 15:26:37.080 ,2,1,0.,12.0,0.,12.0,0.,12.0,0.,12.0
1979-07-12 15:26:49.080 ,2,0,0.,12.0,0.,12.0,0.,12.0,0.,12.0
1979-07-12 15:27:01.080 ,2,0,0.,12.0,0.,12.0,0.,12.0,0.,12.0
1979-07-12 15:27:13.080 ,3,1,0.,12.0,0.,12.0,0.,12.0,0.,12.0
1979-07-12 15:27:25.080 ,3,1,0.,12.0,0.,12.0,0.,12.0,0.,12.0
1979-07-12 15:27:37.080 ,3,0,0.,12.0,0.,12.0,0.,12.0,0.,12.0
1979-07-12 15:27:49.080 ,3,0,0.,12.0,0.,12.0,0.,12.0,0.,12.0
1979-07-12 15:28:01.080 ,4,1,0.,12.0,0.,12.0,0.,12.0,0.,12.0
1979-07-12 15:28:13.080 ,4,1,0.,12.0,0.,12.0,0.,12.0,0.,12.0
1979-07-12 15:28:25.080 ,4,0,0.,12.0,0.,12.0,0.,12.0,0.,12.0
1979-07-12 15:28:37.080 ,4,0,1.,12.0,0.,12.0,0.,12.0,0.,12.0
1979-07-12 15:28:49.080 ,5,1,0.,12.0,0.,12.0,0.,12.0,0.,12.0
1979-07-12 15:29:01.080 ,5,1,0.,12.0,0.,12.0,0.,12.0,0.,12.0
1979-07-12 15:29:13.080 ,5,0,1.,12.0,0.,12.0,0.,12.0,0.,12.0
1979-07-12 15:29:25.080 ,5,0,0.,12.0,0.,12.0,0.,12.0,0.,12.0
1979-07-12 15:29:37.080 ,6,1,0.,12.0,0.,12.0,0.,12.0,0.,12.0
1979-07-12 15:29:49.080 ,6,1,0.,12.0,0.,12.0,0.,12.0,0.,12.0
1979-07-12 15:30:01.080 ,6,0,0.,12.0,0.,12.0,0.,12.0,0.,12.0
1979-07-12 15:30:13.080 ,6,0,0.,12.0,0.,12.0,0.,12.0,0.,12.0
1979-07-12 15:30:25.080 ,7,0,0.,12.0,0.,12.0,0.,12.0,0.,12.0
1979-07-12 15:30:37.080 ,7,0,0.,12.0,0.,12.0,0.,12.0,0.,12.0
1979-07-12 15:30:49.080 ,7,0,0.,12.0,0.,12.0,0.,12.0,0.,12.0
1979-07-12 15:31:01.080 ,7,0,0.,12.0,0.,12.0,0.,12.0,0.,12.0
1979-07-12 15:31:13.080 ,4,1,0.,12.0,0.,12.0,0.,12.0,0.,12.0
1979-07-12 15:31:25.080 ,4,1,0.,12.0,0.,12.0,0.,12.0,0.,12.0
1979-07-12 15:31:37.080 ,0,1,0.,12.0,0.,12.0,0.,12.0,0.,12.0
1979-07-12 15:31:49.080 ,0,1,0.,12.0,0.,12.0,0.,12.0,0.,12.0
1979-07-12 15:32:01.080 ,3,1,0.,12.0,0.,12.0,0.,12.0,0.,12.0
1979-07-12 15:32:13.080 ,3,1,0.,12.0,0.,12.0,0.,12.0,0.,12.0
1979-07-12 15:32:25.080 ,7,1,0.,12.0,0.,12.0,0.,12.0,0.,12.0
1979-07-12 15:32:37.080 ,7,1,0.,12.0,0.,12.0,0.,12.0,0.,12.0
1979-07-12 15:32:49.080 ,4,1,0.,12.0,0.,12.0,0.,12.0,1.,12.0
1979-07-12 15:33:01.080 ,4,1,0.,12.0,0.,12.0,0.,12.0,0.,12.0
1979-07-12 15:33:13.080 ,0,1,0.,12.0,0.,12.0,0.,12.0,0.,12.0
1979-07-12 15:33:25.080 ,0,1,1.,12.0,0.,12.0,0.,12.0,0.,12.0
1979-07-12 15:33:37.080 ,3,1,0.,12.0,0.,12.0,0.,12.0,0.,12.0
1979-07-12 15:33:49.080 ,3,1,0.,12.0,0.,12.0,0.,12.0,0.,12.0
1979-07-12 15:34:01.080 ,7,1,0.,12.0,0.,12.0,0.,12.0,0.,12.0
1979-07-12 15:34:13.080 ,7,1,1.,12.0,0.,12.0,0.,12.0,1.,12.0
1979-07-12 15:34:25.080 ,4,1,0.,12.0,0.,12.0,0.,12.0,1.,12.0
1979-07-12 15:34:37.080 ,4,1,1.,12.0,0.,12.0,0.,12.0,0.,12.0
1979-07-12 15:34:49.080 ,0,1,0.,12.0,0.,12.0,0.,12.0,0.,12.0
1979-07-12 15:35:01.080 ,0,1,0.,12.0,0.,12.0,0.,12.0,0.,12.0
1979-07-12 15:35:13.080 ,3,1,0.,12.0,0.,12.0,0.,12.0,1.,12.0
1979-07-12 15:35:25.080 ,3,1,0.,12.0,0.,12.0,0.,12.0,0.,12.0
1979-07-12 15:35:37.080 ,7,1,1.,12.0,0.,12.0,0.,12.0,0.,12.0
1979-07-12 15:35:49.080 ,7,1,0.,12.0,0.,12.0,0.,12.0,0.,12.0
1979-07-12 15:36:01.080 ,4,1,0.,12.0,0.,12.0,0.,12.0,0.,12.0
1979-07-12 15:36:13.080 ,4,1,1.,12.0,0.,12.0,0.,12.0,0.,12.0
1979-07-12 15:36:25.080 ,0,1,1.,12.0,0.,12.0,0.,12.0,0.,12.0
1979-07-12 15:36:37.080 ,0,1,0.,12.0,0.,12.0,0.,12.0,0.,12.0
1979-07-12 15:36:49.080 ,3,1,0.,12.0,0.,12.0,0.,12.0,0.,12.0
1979-07-12 15:37:01.080 ,3,1,1.,12.0,0.,12.0,0.,12.0,0.,12.0
1979-07-12 15:37:13.080 ,0,0,0.,12.0,0.,12.0,0.,12.0,0.,12.0
1979-07-12 15:37:25.080 ,0,0,2.,12.0,0.,12.0,0.,12.0,0.,12.0
1979-07-12 15:38:13.080 ,0,0,,0,,0,,0,,0
1979-07-12 15:38:25.080 ,0,0,0.,12.0,0.,12.0,0.,12.0,0.,12.0
1979-07-12 15:38:25.080 ,0,0,0.,12.0,0.,12.0,0.,12.0,0.,12.0
1979-07-12 15:38:37.080 ,0,0,0.,12.0,0.,12.0,0.,12.0,0.,12.0
1979-07-12 15:38:49.080 ,7,1,0.,12.0,0.,12.0,0.,12.0,0.,12.0
1979-07-12 15:39:01.080 ,7,1,0.,12.0,0.,12.0,0.,12.0,0.,12.0
1979-07-12 15:39:13.080 ,4,1,0.,12.0,0.,12.0,0.,12.0,0.,12.0
1979-07-12 15:39:25.080 ,4,1,2.,12.0,0.,12.0,0.,12.0,0.,12.0
1979-07-12 15:39:37.080 ,0,1,0.,12.0,0.,12.0,0.,12.0,0.,12.0
1979-07-12 15:39:49.080 ,0,1,0.,12.0,0.,12.0,0.,12.0,0.,12.0
1979-07-12 15:40:01.080 ,3,1,0.,12.0,0.,12.0,0.,12.0,0.,12.0
1979-07-12 15:40:13.080 ,3,1,0.,12.0,0.,12.0,0.,12.0,0.,12.0
1979-07-12 15:40:25.080 ,7,1,0.,12.0,0.,12.0,0.,12.0,0.,12.0
1979-07-12 15:40:37.080 ,7,1,0.,12.0,0.,12.0,0.,12.0,0.,12.0
1979-07-12 15:40:49.080 ,4,1,0.,12.0,0.,12.0,0.,12.0,0.,12.0
1979-07-12 15:41:01.080 ,4,1,2.,12.0,0.,12.0,0.,12.0,1.,12.0
1979-07-12 15:41:13.080 ,0,1,0.,12.0,0.,12.0,0.,12.0,0.,12.0
1979-07-12 15:41:25.080 ,0,1,0.,12.0,0.,12.0,0.,12.0,0.,12.0
1979-07-12 15:41:37.080 ,0,0,0.,12.0,0.,12.0,0.,12.0,0.,12.0
1979-07-12 15:41:49.080 ,0,0,1.,12.0,0.,12.0,0.,12.0,0.,12.0
1979-07-12 15:42:01.080 ,0,0,0.,12.0,0.,12.0,0.,12.0,0.,12.0
1979-07-12 15:42:13.080 ,0,0,0.,12.0,0.,12.0,0.,12.0,0.,12.0
1979-07-12 15:42:25.080 ,5,1,1.,12.0,0.,12.0,0.,12.0,0.,12.0
1979-07-12 15:42:37.080 ,5,1,0.,12.0,0.,12.0,0.,12.0,0.,12.0
1979-07-12 15:42:49.080 ,5,0,1.,12.0,0.,12.0,0.,12.0,0.,12.0
1979-07-12 15:43:01.080 ,5,0,0.,12.0,0.,12.0,0.,12.0,0.,12.0
1979-07-12 15:43:13.080 ,4,1,0.,12.0,0.,12.0,0.,12.0,0.,12.0
1979-07-12 15:43:25.080 ,4,1,1.,12.0,0.,12.0,0.,12.0,0.,12.0
1979-07-12 15:43:37.080 ,4,0,0.,12.0,0.,12.0,0.,12.0,0.,12.0
1979-07-12 15:43:49.080 ,4,0,0.,12.0,0.,12.0,0.,12.0,0.,12.0
1979-07-12 15:44:01.080 ,3,1,2.,12.0,0.,12.0,0.,12.0,0.,12.0
1979-07-12 15:44:13.080 ,3,1,0.,12.0,0.,12.0,0.,12.0,0.,12.0
1979-07-12 15:44:25.080 ,3,0,0.,12.0,0.,12.0,0.,12.0,0.,12.0
1979-07-12 15:44:37.080 ,3,0,0.,12.0,0.,12.0,0.,12.0,0.,12.0
1979-07-12 15:44:49.080 ,2,1,0.,12.0,0.,12.0,0.,12.0,1.,12.0
1979-07-12 15:45:01.080 ,2,1,0.,12.0,0.,12.0,0.,12.0,0.,12.0
1979-07-12 15:45:13.080 ,2,0,0.,12.0,0.,12.0,0.,12.0,0.,12.0
1979-07-12 15:45:25.080 ,2,0,1.,12.0,0.,12.0,0.,12.0,0.,12.0
1979-07-12 15:45:37.080 ,1,1,1.,12.0,0.,12.0,0.,12.0,0.,12.0
1979-07-12 15:45:49.080 ,1,1,0.,12.0,0.,12.0,0.,12.0,0.,12.0
1979-07-12 15:46:01.080 ,1,0,0.,12.0,0.,12.0,0.,12.0,1.,12.0
1979-07-12 15:46:13.080 ,1,0,0.,12.0,0.,12.0,0.,12.0,1.,12.0
1979-07-12 15:46:25.080 ,0,1,0.,12.0,0.,12.0,0.,12.0,0.,12.0
1979-07-12 15:46:37.080 ,0,1,0.,12.0,0.,12.0,0.,12.0,0.,12.0
1979-07-12 15:46:49.080 ,0,0,0.,12.0,0.,12.0,0.,12.0,0.,12.0
1979-07-12 15:47:01.080 ,0,0,0.,12.0,0.,12.0,0.,12.0,0.,12.0
1979-07-12 15:47:13.080 ,0,1,0.,12.0,0.,12.0,0.,12.0,1.,12.0
1979-07-12 15:47:25.080 ,0,1,1.,12.0,0.,12.0,0.,12.0,0.,12.0
1979-07-12 15:47:37.080 ,0,0,0.,12.0,0.,12.0,0.,12.0,2.,12.0
1979-07-12 15:47:49.080 ,0,0,0.,12.0,0.,12.0,0.,12.0,1.,12.0
1979-07-12 15:48:01.080 ,1,1,0.,12.0,0.,12.0,0.,12.0,0.,12.0
1979-07-12 15:48:13.080 ,1,1,0.,12.0,0.,12.0,0.,12.0,0.,12.0
1979-07-12 15:48:25.080 ,1,0,0.,12.0,0.,12.0,0.,12.0,0.,12.0
1979-07-12 15:48:37.080 ,1,0,0.,12.0,0.,12.0,0.,12.0,0.,12.0
1979-07-12 15:48:49.080 ,2,1,0.,12.0,0.,12.0,0.,12.0,0.,12.0
1979-07-12 15:49:01.080 ,2,1,0.,12.0,0.,12.0,0.,12.0,0.,12.0
1979-07-12 15:49:13.080 ,2,0,0.,12.0,0.,12.0,0.,12.0,0.,12.0
1979-07-12 15:49:25.080 ,2,0,0.,12.0,0.,12.0,0.,12.0,0.,12.0
1979-07-12 15:49:37.080 ,3,1,1.,12.0,0.,12.0,0.,12.0,0.,12.0
1979-07-12 15:49:49.080 ,3,1,0.,12.0,0.,12.0,0.,12.0,0.,12.0
1979-07-12 15:50:01.080 ,3,0,1.,12.0,0.,12.0,0.,12.0,0.,12.0
1979-07-12 15:50:13.080 ,3,0,0.,12.0,0.,12.0,0.,12.0,0.,12.0
1979-07-12 15:50:25.080 ,4,1,0.,12.0,0.,12.0,0.,12.0,0.,12.0
1979-07-12 15:50:37.080 ,4,1,2.,12.0,0.,12.0,0.,12.0,0.,12.0
1979-07-12 15:50:49.080 ,4,0,0.,12.0,0.,12.0,0.,12.0,0.,12.0
1979-07-12 15:51:01.080 ,4,0,1.,12.0,0.,12.0,0.,12.0,1.,12.0
1979-07-12 15:51:13.080 ,5,1,0.,12.0,0.,12.0,0.,12.0,0.,12.0
1979-07-12 15:51:25.080 ,5,1,1.,12.0,0.,12.0,0.,12.0,0.,12.0
1979-07-12 15:51:37.080 ,5,0,2.,12.0,0.,12.0,0.,12.0,0.,12.0
1979-07-12 15:51:49.080 ,5,0,5.,12.0,0.,12.0,0.,12.0,0.,12.0
1979-07-12 15:52:01.080 ,6,1,2.,12.0,0.,12.0,0.,12.0,0.,12.0
1979-07-12 15:52:13.080 ,6,1,0.,12.0,0.,12.0,0.,12.0,0.,12.0
1979-07-12 15:52:25.080 ,6,0,1.,12.0,0.,12.0,0.,12.0,0.,12.0
1979-07-12 15:52:37.080 ,6,0,0.,12.0,0.,12.0,0.,12.0,0.,12.0
1979-07-12 15:52:49.080 ,7,1,0.,12.0,0.,12.0,0.,12.0,0.,12.0
1979-07-12 15:53:01.080 ,7,1,0.,12.0,0.,12.0,0.,12.0,0.,12.0
1979-07-12 15:53:13.080 ,7,0,0.,12.0,0.,12.0,0.,12.0,0.,12.0
1979-07-12 15:53:25.080 ,7,0,0.,12.0,0.,12.0,0.,12.0,1.,12.0
1979-07-12 15:53:37.080 ,7,1,0.,12.0,0.,12.0,0.,12.0,0.,12.0
1979-07-12 15:53:49.080 ,7,1,0.,12.0,0.,12.0,0.,12.0,0.,12.0
1979-07-12 15:54:01.080 ,7,0,0.,12.0,0.,12.0,0.,12.0,0.,12.0
1979-07-12 15:54:13.080 ,7,0,0.,12.0,0.,12.0,0.,12.0,0.,12.0
1979-07-12 15:54:25.080 ,6,1,0.,12.0,0.,12.0,0.,12.0,0.,12.0
1979-07-12 15:54:37.080 ,6,1,0.,12.0,0.,12.0,0.,12.0,0.,12.0
1979-07-12 15:54:49.080 ,6,0,0.,12.0,0.,12.0,0.,12.0,0.,12.0
1979-07-12 15:55:01.080 ,6,0,0.,12.0,0.,12.0,0.,12.0,0.,12.0
1979-07-12 15:55:13.080 ,5,1,1.,12.0,0.,12.0,0.,12.0,0.,12.0
1979-07-12 15:55:25.080 ,5,1,0.,12.0,0.,12.0,0.,12.0,0.,12.0
1979-07-12 15:55:37.080 ,5,0,1.,12.0,0.,12.0,0.,12.0,0.,12.0
1979-07-12 15:55:49.080 ,5,0,0.,12.0,0.,12.0,0.,12.0,0.,12.0
1979-07-12 15:56:01.080 ,4,1,3.,12.0,0.,12.0,0.,12.0,0.,12.0
1979-07-12 15:56:13.080 ,4,1,4.,12.0,0.,12.0,0.,12.0,0.,12.0
1979-07-12 15:56:25.080 ,4,0,4.,12.0,0.,12.0,0.,12.0,0.,12.0
1979-07-12 15:56:37.080 ,4,0,3.,12.0,0.,12.0,0.,12.0,0.,12.0
1979-07-12 15:56:49.080 ,3,1,1.,12.0,0.,12.0,0.,12.0,1.,12.0
1979-07-12 15:57:01.080 ,3,1,2.,12.0,0.,12.0,0.,12.0,1.,12.0
1979-07-12 15:57:13.080 ,3,0,3.,12.0,0.,12.0,0.,12.0,0.,12.0
1979-07-12 15:57:25.080 ,3,0,0.,12.0,0.,12.0,0.,12.0,0.,12.0
1979-07-12 15:57:37.080 ,2,1,2.,12.0,0.,12.0,0.,12.0,0.,12.0
1979-07-12 15:57:49.080 ,2,1,2.,12.0,0.,12.0,0.,12.0,0.,12.0
1979-07-12 15:58:01.080 ,2,0,1.,12.0,0.,12.0,0.,12.0,0.,12.0
1979-07-12 15:58:13.080 ,2,0,3.,12.0,0.,12.0,0.,12.0,0.,12.0
1979-07-12 15:58:25.070 ,1,1,1.,12.0,0.,12.0,0.,12.0,0.,12.0
1979-07-12 15:58:37.070 ,1,1,0.,12.0,0.,12.0,0.,12.0,1.,12.0
1979-07-12 15:58:49.070 ,1,0,0.,12.0,0.,12.0,0.,12.0,0.,12.0
1979-07-12 15:59:01.070 ,1,0,3.,12.0,0.,12.0,0.,12.0,0.,12.0
1979-07-12 15:59:13.070 ,0,1,0.,12.0,0.,12.0,0.,12.0,0.,12.0
1979-07-12 15:59:25.070 ,0,1,0.,12.0,0.,12.0,0.,12.0,0.,12.0
1979-07-12 15:59:37.070 ,0,0,1.,12.0,0.,12.0,0.,12.0,0.,12.0
1979-07-12 15:59:49.070 ,0,0,1.,12.0,0.,12.0,0.,12.0,0.,12.0
1979-07-12 16:00:01.080 ,0,1,1.,12.0,0.,12.0,0.,12.0,0.,12.0
1979-07-12 16:00:13.080 ,0,1,1.,12.0,0.,12.0,0.,12.0,0.,12.0
1979-07-12 16:00:25.080 ,0,0,1.,12.0,0.,12.0,0.,12.0,0.,12.0
1979-07-12 16:00:37.080 ,0,0,1.,12.0,0.,12.0,0.,12.0,0.,12.0
1979-07-12 16:00:49.080 ,1,1,2.,12.0,0.,12.0,0.,12.0,0.,12.0
1979-07-12 16:01:01.080 ,1,1,2.,12.0,0.,12.0,0.,12.0,0.,12.0
1979-07-12 16:01:13.070 ,1,0,0.,12.0,0.,12.0,0.,12.0,0.,12.0
1979-07-12 16:01:25.080 ,1,0,1.,12.0,0.,12.0,0.,12.0,0.,12.0
1979-07-12 16:01:37.080 ,2,1,2.,12.0,0.,12.0,0.,12.0,0.,12.0
1979-07-12 16:01:49.080 ,2,1,0.,12.0,0.,12.0,0.,12.0,0.,12.0
1979-07-12 16:02:01.080 ,2,0,2.,12.0,0.,12.0,0.,12.0,0.,12.0
1979-07-12 16:02:13.080 ,2,0,0.,12.0,0.,12.0,0.,12.0,0.,12.0
1979-07-12 16:02:25.070 ,3,1,0.,12.0,0.,12.0,0.,12.0,1.,12.0
1979-07-12 16:02:37.080 ,3,1,4.,12.0,0.,12.0,0.,12.0,0.,12.0
1979-07-12 16:02:49.070 ,3,0,2.,12.0,0.,12.0,0.,12.0,0.,12.0
1979-07-12 16:03:01.080 ,3,0,1.,12.0,0.,12.0,0.,12.0,1.,12.0
1979-07-12 16:03:13.070 ,4,1,1.,12.0,0.,12.0,0.,12.0,0.,12.0
1979-07-12 16:03:25.080 ,4,1,3.,12.0,0.,12.0,0.,12.0,0.,12.0
1979-07-12 16:03:37.070 ,4,0,2.,12.0,0.,12.0,0.,12.0,0.,12.0
1979-07-12 16:03:49.080 ,4,0,2.,12.0,0.,12.0,0.,12.0,1.,12.0
1979-07-12 16:04:01.070 ,5,1,0.,12.0,0.,12.0,0.,12.0,0.,12.0
1979-07-12 16:04:13.080 ,5,1,2.,12.0,0.,12.0,0.,12.0,0.,12.0
1979-07-12 16:04:25.080 ,5,0,0.,12.0,0.,12.0,0.,12.0,0.,12.0
1979-07-12 16:04:37.080 ,5,0,0.,12.0,0.,12.0,0.,12.0,0.,12.0
1979-07-12 16:04:49.080 ,6,1,1.,12.0,0.,12.0,0.,12.0,0.,12.0
1979-07-12 16:05:01.080 ,6,1,1.,12.0,0.,12.0,0.,12.0,0.,12.0
1979-07-12 16:05:13.080 ,6,0,0.,12.0,0.,12.0,0.,12.0,0.,12.0
1979-07-12 16:05:25.080 ,6,0,2.,12.0,0.,12.0,0.,12.0,0.,12.0
1979-07-12 16:05:37.080 ,7,1,0.,12.0,0.,12.0,0.,12.0,0.,12.0
1979-07-12 16:05:49.080 ,7,1,1.,12.0,0.,12.0,0.,12.0,0.,12.0
1979-07-12 16:06:01.080 ,7,0,0.,12.0,0.,12.0,0.,12.0,0.,12.0
1979-07-12 16:06:13.080 ,7,0,0.,12.0,0.,12.0,0.,12.0,0.,12.0
1979-07-12 16:06:25.080 ,7,1,0.,12.0,0.,12.0,0.,12.0,1.,12.0
1979-07-12 16:06:37.080 ,7,1,0.,12.0,0.,12.0,0.,12.0,0.,12.0
1979-07-12 16:06:49.080 ,7,0,0.,12.0,0.,12.0,0.,12.0,0.,12.0
1979-07-12 16:07:01.080 ,7,0,0.,12.0,0.,12.0,0.,12.0,0.,12.0
1979-07-12 16:07:13.080 ,6,1,0.,12.0,0.,12.0,0.,12.0,0.,12.0
1979-07-12 16:07:25.080 ,6,1,0.,12.0,0.,12.0,0.,12.0,0.,12.0
1979-07-12 16:07:37.080 ,6,0,3.,12.0,0.,12.0,0.,12.0,0.,12.0
1979-07-12 16:07:49.080 ,6,0,0.,12.0,0.,12.0,0.,12.0,0.,12.0
1979-07-12 16:08:01.080 ,5,1,1.,12.0,0.,12.0,0.,12.0,0.,12.0
1979-07-12 16:08:13.080 ,5,1,0.,12.0,0.,12.0,0.,12.0,0.,12.0
1979-07-12 16:08:25.080 ,5,0,1.,12.0,0.,12.0,0.,12.0,0.,12.0
1979-07-12 16:08:37.080 ,5,0,1.,12.0,0.,12.0,0.,12.0,0.,12.0
1979-07-12 16:08:49.080 ,4,1,8.,12.0,0.,12.0,0.,12.0,0.,12.0
1979-07-12 16:09:01.080 ,4,1,2.,12.0,0.,12.0,0.,12.0,0.,12.0
1979-07-12 16:09:13.080 ,4,0,8.,12.0,0.,12.0,0.,12.0,1.,12.0
1979-07-12 16:09:25.080 ,4,0,4.,12.0,0.,12.0,0.,12.0,0.,12.0
1979-07-12 16:09:37.080 ,3,1,5.,12.0,0.,12.0,0.,12.0,0.,12.0
1979-07-12 16:09:49.080 ,3,1,2.,12.0,0.,12.0,0.,12.0,0.,12.0
1979-07-12 16:10:01.080 ,3,0,5.,12.0,0.,12.0,0.,12.0,0.,12.0
1979-07-12 16:10:13.080 ,3,0,6.,12.0,0.,12.0,0.,12.0,0.,12.0
1979-07-12 16:10:25.080 ,2,1,2.,12.0,0.,12.0,0.,12.0,1.,12.0
1979-07-12 16:10:37.080 ,2,1,0.,12.0,0.,12.0,0.,12.0,0.,12.0
1979-07-12 16:10:49.080 ,2,0,2.,12.0,0.,12.0,0.,12.0,0.,12.0
1979-07-12 16:11:01.080 ,2,0,2.,12.0,0.,12.0,0.,12.0,1.,12.0
1979-07-12 16:11:13.080 ,1,1,1.,12.0,0.,12.0,0.,12.0,0.,12.0
1979-07-12 16:11:25.080 ,1,1,2.,12.0,0.,12.0,0.,12.0,0.,12.0
1979-07-12 16:11:37.080 ,1,0,2.,12.0,0.,12.0,0.,12.0,0.,12.0
1979-07-12 16:11:49.080 ,1,0,2.,12.0,0.,12.0,0.,12.0,0.,12.0
1979-07-12 16:12:01.080 ,0,1,2.,12.0,0.,12.0,0.,12.0,0.,12.0
1979-07-12 16:12:13.080 ,0,1,3.,12.0,0.,12.0,0.,12.0,1.,12.0
1979-07-12 16:12:25.080 ,0,0,3.,12.0,0.,12.0,0.,12.0,0.,12.0
1979-07-12 16:12:37.080 ,0,0,2.,12.0,0.,12.0,0.,12.0,1.,12.0
1979-07-12 16:12:49.080 ,0,1,2.,12.0,0.,12.0,0.,12.0,0.,12.0
1979-07-12 16:13:01.080 ,0,1,4.,12.0,0.,12.0,0.,12.0,0.,12.0
1979-07-12 16:13:13.080 ,0,0,4.,12.0,0.,12.0,0.,12.0,0.,12.0
1979-07-12 16:13:25.080 ,0,0,2.,12.0,0.,12.0,0.,12.0,0.,12.0
1979-07-12 16:13:37.080 ,1,1,1.,12.0,0.,12.0,0.,12.0,0.,12.0
1979-07-12 16:13:49.080 ,1,1,2.,12.0,0.,12.0,0.,12.0,0.,12.0
1979-07-12 16:14:01.080 ,1,0,1.,12.0,0.,12.0,0.,12.0,0.,12.0
1979-07-12 16:14:13.080 ,1,0,0.,12.0,0.,12.0,0.,12.0,0.,12.0
1979-07-12 16:14:25.080 ,2,1,5.,12.0,0.,12.0,0.,12.0,1.,12.0
1979-07-12 16:14:37.080 ,2,1,1.,12.0,0.,12.0,0.,12.0,0.,12.0
1979-07-12 16:14:49.080 ,2,0,3.,12.0,0.,12.0,0.,12.0,0.,12.0
1979-07-12 16:15:01.080 ,2,0,3.,12.0,0.,12.0,0.,12.0,0.,12.0
1979-07-12 16:15:13.080 ,3,1,1.,12.0,0.,12.0,0.,12.0,1.,12.0
1979-07-12 16:15:25.080 ,3,1,5.,12.0,0.,12.0,0.,12.0,0.,12.0
1979-07-12 16:15:37.080 ,3,0,6.,12.0,0.,12.0,0.,12.0,0.,12.0
1979-07-12 16:15:49.080 ,3,0,5.,12.0,0.,12.0,0.,12.0,0.,12.0
1979-07-12 16:16:01.080 ,4,1,1.,12.0,0.,12.0,0.,12.0,0.,12.0
1979-07-12 16:16:13.080 ,4,1,5.,12.0,0.,12.0,0.,12.0,0.,12.0
1979-07-12 16:16:25.080 ,4,0,7.,12.0,0.,12.0,0.,12.0,0.,12.0
1979-07-12 16:16:37.080 ,4,0,8.,12.0,0.,12.0,0.,12.0,0.,12.0
1979-07-12 16:16:49.080 ,5,1,5.,12.0,0.,12.0,0.,12.0,0.,12.0
1979-07-12 16:17:01.080 ,5,1,9.,12.0,0.,12.0,0.,12.0,0.,12.0
1979-07-12 16:17:13.070 ,5,0,7.,12.0,0.,12.0,0.,12.0,0.,12.0
1979-07-12 16:17:25.070 ,5,0,8.,12.0,0.,12.0,0.,12.0,0.,12.0
1979-07-12 16:17:37.070 ,6,1,0.,12.0,0.,12.0,0.,12.0,1.,12.0
1979-07-12 16:17:49.070 ,6,1,6.,12.0,0.,12.0,0.,12.0,0.,12.0
1979-07-12 16:18:01.070 ,6,0,3.,12.0,0.,12.0,0.,12.0,0.,12.0
1979-07-12 16:18:13.070 ,6,0,5.,12.0,0.,12.0,0.,12.0,0.,12.0
1979-07-12 16:18:25.070 ,7,0,4.,12.0,0.,12.0,0.,12.0,0.,12.0
1979-07-12 16:18:37.070 ,7,0,1.,12.0,0.,12.0,0.,12.0,0.,12.0